This demonstration page uses our WeatherBlox Daily Observations layout. Learn more.

Left ArrowRight Arrow

39.08367, -84.50855

Hourly Observations for January 4, 2017

Temp ( °F °C ) Dew Point ( °F °C ) Humidity (%) Winds ( mph kmh ) Pressure ( in mb ) Visibility ( mi km ) Precip ( " mm )
12:23 am 00:23 Cloudy with Light Rain 43 6.1 40 4.4 89 89 WNW 15 24 29.83 1010 10 16 0.00 0.00
12:53 am 00:53 Cloudy 42 5.6 39 3.9 89 89 WNW 13 20 29.82 1010 10 16 0.00 0.00
1:35 am 01:35 Cloudy 41 5 38 3.3 89 89 W 9 15 29.85 1011 10 16 0.00 0.00
1:53 am 01:53 Cloudy 41 5 38 3.3 89 89 WNW 7 11 29.83 1010 10 16 0.00 0.00
2:32 am 02:32 Cloudy 39 4 36 2 87 87 NW 9 15 29.88 1012 10 16 0.00 0.00
2:53 am 02:53 Cloudy 39 3.9 36 2.2 89 89 W 20 31 29.86 1011 10 16 0.00 0.00
3:53 am 03:53 Cloudy 37 2.8 34 1.1 89 89 WNW 21 33 29.89 1012 9 14 0.00 0.00
4:53 am 04:53 Cloudy 34 1.1 29 -1.7 82 82 WNW 15 24 29.92 1013 10 16 0.00 0.00
5:53 am 05:53 Mostly Cloudy 32 0 26 -3.3 79 79 W 14 22 29.94 1014 10 16 0.00 0.00
6:26 am 06:26 Partly Cloudy 30 -1 23 -5 75 75 W 14 22 30.00 1016 10 16 0.00 0.00
6:53 am 06:53 Mostly Clear 30 -1.1 22 -5.6 72 72 WNW 10 17 29.98 1015 10 16 0.00 0.00
7:53 am 07:53 Mostly Clear 28 -2.2 19 -7.2 69 69 W 12 19 30.00 1016 10 16 0.00 0.00
8:53 am 08:53 Mostly Sunny 28 -2.2 18 -7.8 66 66 WNW 12 19 30.02 1017 10 16 0.00 0.00
9:53 am 09:53 Mostly Sunny 27 -2.8 16 -8.9 63 63 W 18 30 30.05 1018 10 16 0.00 0.00
10:53 am 10:53 Sunny 29 -1.7 17 -8.3 61 61 W 17 28 30.07 1018 10 16 0.00 0.00
11:53 am 11:53 Sunny 30 -1.1 17 -8.3 58 58 W 17 28 30.06 1018 10 16 0.00 0.00
12:53 pm 12:53 Sunny 31 -0.6 16 -8.9 54 54 W 16 26 30.05 1018 10 16 0.00 0.00
1:53 pm 13:53 Mostly Sunny 31 -0.6 15 -9.4 52 52 W 14 22 30.04 1017 10 16 0.00 0.00
2:53 pm 14:53 Sunny 30 -1.1 13 -10.6 49 49 W 18 30 30.05 1018 10 16 0.00 0.00
3:53 pm 15:53 Sunny 30 -1.1 14 -10 51 51 W 16 26 30.06 1018 10 16 0.00 0.00
4:53 pm 16:53 Sunny 28 -2.2 12 -11.1 51 51 W 13 20 30.06 1018 10 16 0.00 0.00
5:53 pm 17:53 Clear 27 -2.8 12 -11.1 53 53 W 14 22 30.07 1018 10 16 0.00 0.00
6:53 pm 18:53 Clear 26 -3.3 12 -11.1 55 55 W 9 15 30.08 1019 10 16 0.00 0.00
7:53 pm 19:53 Clear 25 -3.9 13 -10.6 60 60 W 9 15 30.09 1019 10 16 0.00 0.00
8:53 pm 20:53 Clear 24 -4.4 12 -11.1 60 60 VRB 7 11 30.08 1019 10 16 0.00 0.00
9:53 pm 21:53 Clear 23 -5 12 -11.1 63 63 W 10 17 30.09 1019 10 16 0.00 0.00
10:53 pm 22:53 Clear 23 -5 13 -10.6 65 65 W 13 20 30.09 1019 10 16 0.00 0.00
11:53 pm 23:53 Clear 22 -5.6 13 -10.6 68 68 W 10 17 30.11 1020 10 16 0.00 0.00

Powered by AerisWeather